{"data":{"norad_id":69581,"intl_designator":"2026-137K","name":"CZ-12 R/B","alt_names":[],"object_type":"ROCKET_BODY","status":"UNKNOWN","operator":null,"country":"PRC","launch_date":"2026-06-17","launch_site_code":"WSC","launch_vehicle":null,"mission":null,"orbit_class":"UNKNOWN","rcs_meters":null,"size_class":null,"mass_kg":null,"dimensions":null,"purposes":[],"wikipedia_slug":null,"has_3d_model":false,"image_url":null,"decayed_at":null,"tle_current":{"epoch":"2026-07-13T06:43:04.828800Z","epoch_age_seconds":6011467,"freshness":"OLD","line1":"1 69581U 26137K   26194.27991700 -.00000112  00000+0  22245-4 0  9998","line2":"2 69581  49.9888 147.7098 0077441 203.1402 156.6010 14.11694334  3691","mean_motion":14.11694334,"eccentricity":0.0077441,"inclination_deg":49.9888,"raan_deg":147.7098,"arg_perigee_deg":203.1402,"mean_anomaly_deg":156.601,"bstar":2.2245e-5,"rev_number":369,"period_min":102.00508462195,"perigee_km":797.57638274287,"apogee_km":909.58265452679,"semimajor_km":7231.7165186348,"source":"CELESTRAK","updated_at":"2026-07-17T09:00:52.707860Z"}}}